Meteo Giornale » Osservazioni meteo Stati Uniti (USA) » Somerville Somerset

ore: 06:53 - Osservazioni Meteo Somerville Somerset
Lat. 40° 37' N Lon. 74° 40' W Alt. 32 metri s.l.m.

coperto

21 °C

Coperto

Temp. 24 Ore

19 °C

25 °C

Nord

0 Km/h

Dew point 20 °C

Umidità 94 %

Visibilità  11 Km

Il sole sorge alle ore 06:26

Il sole tramonta alle ore 19:31

Data e Ora Cielo e Fenomeni T °C DP °C Um. % Pres. hPa Vis. km Vento km/h
Oggi h: 06:53 coperto Coperto 21 20 94 1015 11 N 0
Oggi h: 05:53 foschia Foschia 20 20 100 1015 6 N 0
Oggi h: 04:53 foschia Foschia 20 20 100 1015 6 N 0
Oggi h: 03:53 molto_nuvoloso Molto Nuvoloso 21 20 94 1016 11 N 0
Oggi h: 03:15 foschia Foschia 21 20 94 1016 10 N 0
Oggi h: 02:53 foschia Foschia 21 21 100 1016 10 N 0
Oggi h: 02:02 coperto Coperto 21 21 100 1016 14 N 0
Oggi h: 01:53 coperto Coperto 21 20 94 1016 14 N 0
Oggi h: 01:26 coperto Coperto 21 21 100 1017 14 N 0
Oggi h: 00:53 coperto Coperto 21 21 100 1017 14 N 0
Ieri h: 23:53 coperto Coperto 22 20 88 1017 10 N 0
Ieri h: 22:53 coperto Coperto 22 20 88 1017 14 N 5.5
Ieri h: 21:53 coperto Coperto 22 20 88 1018 10 N 0
Ieri h: 20:53 coperto Coperto 21 21 100 1017 14 N 0
Ieri h: 19:53 coperto Coperto 22 20 88 1017 10 N 0
Ieri h: 18:53 poco_nuvoloso Poco Nuvoloso 23 21 88 1017 14 N 0
Ieri h: 17:53 nuvoloso Nuvoloso 23 20 83 1018 14 N 0
Ieri h: 16:53 coperto_pioggia Pioggia 24 20 78 1018 13 N 5.5
Ieri h: 15:53 coperto Coperto 24 19 73 1019 10 N 0
Ieri h: 14:53 coperto Coperto 24 19 73 1019 10 N 0
Ieri h: 13:53 coperto Coperto 24 18 69 1019 10 N 0
Ieri h: 12:53 coperto Coperto 25 18 65 1019 10 N 5.5
Ieri h: 11:53 coperto Coperto 24 18 69 1020 10 N 0
Ieri h: 10:53 coperto Coperto 24 18 69 1020 10 N 0
Ieri h: 09:53 molto_nuvoloso Molto Nuvoloso 23 17 68 1020 10 N 7.4
Ieri h: 08:53 molto_nuvoloso Molto Nuvoloso 21 18 82 1020 10 N 5.5
Ieri h: 07:53 sereno Sereno 19 18 93 1020 11 N 0